Location: Ferchesar
(52.6477°N, 12.4298°E)
Time: 17:00:29
(UTC+01:00)

Vanguard 3 - All Passes

Search period start: 27 February 2021 00:00
Search period end: 09 March 2021 00:00
Orbit: 508 x 3261 km, 33.3° (Epoch: 26 February)

Date Brightness Start Highest point End Pass type
(mag) Time Alt. Az. Time Alt. Az. Time Alt. Az.
27 Feb - 14:31:34 10° S 14:39:30 15° SSE 14:46:17 10° ESE daylight
27 Feb - 16:40:05 10° SW 16:52:03 25° SSE 17:00:32 10° ESE daylight
27 Feb - 18:53:49 10° WSW 19:04:03 26° S 19:10:55 10° SE visible
27 Feb - 21:10:07 10° WSW 21:14:39 14° SSW 21:18:17 10° S visible
28 Feb - 15:25:05 10° SSW 15:37:06 23° SSE 15:46:17 10° ESE daylight
28 Feb - 17:37:19 10° SW 17:49:39 29° S 17:57:58 10° SE daylight
28 Feb - 19:52:31 10° WSW 20:01:06 22° SSW 20:07:05 10° SSE visible
01 Mar - 14:11:30 10° S 14:22:01 18° SSE 14:30:52 10° ESE daylight
01 Mar - 16:21:17 10° SW 16:34:48 29° S 16:44:24 10° ESE daylight
01 Mar - 18:35:31 10° WSW 18:47:03 28° SSW 18:54:45 10° SE visible
01 Mar - 20:52:18 10° WSW 20:57:44 15° SW 21:02:00 10° S visible
02 Mar - 13:00:49 10° SSE 13:07:02 12° SE 13:12:48 10° ESE daylight
02 Mar - 15:06:02 10° SSW 15:19:41 26° SSE 15:30:09 10° ESE daylight
02 Mar - 17:18:49 10° SW 17:32:28 31° S 17:41:44 10° SE daylight
02 Mar - 19:34:26 10° WSW 19:44:07 23° SSW 19:50:49 10° SSE visible
03 Mar - 13:52:02 10° S 14:04:26 21° SSE 14:14:53 10° ESE daylight
03 Mar - 16:02:37 10° SW 16:17:27 32° S 16:28:07 10° ESE daylight
03 Mar - 18:17:13 10° WSW 18:29:56 30° SSW 18:38:27 10° SE visible
03 Mar - 20:34:28 10° WSW 20:40:43 16° SW 20:45:35 10° S visible
04 Mar - 12:40:10 10° S 12:49:19 15° SE 12:57:46 10° ESE daylight
04 Mar - 14:47:13 10° SSW 15:02:07 29° SSE 15:13:48 10° ESE daylight
04 Mar - 17:00:22 10° WSW 17:15:10 34° S 17:25:22 10° SE daylight
04 Mar - 19:16:19 10° WSW 19:27:00 24° SSW 19:34:25 10° SSE visible
05 Mar - 13:32:59 10° SSW 13:46:43 24° SSE 13:58:33 10° ESE daylight
05 Mar - 15:44:06 10° SW 15:59:57 34° S 16:11:39 10° ESE daylight
05 Mar - 17:58:56 10° WSW 18:12:40 31° SSW 18:22:02 10° SE daylight
05 Mar - 20:16:35 10° WSW 20:23:34 16° SW 20:29:00 10° S visible
06 Mar - 12:20:32 10° S 12:31:29 18° SE 12:41:48 10° ESE daylight
06 Mar - 14:28:38 10° SW 14:44:26 32° SSE 14:57:14 10° ESE daylight
06 Mar - 16:42:01 10° WSW 16:57:44 36° S 17:08:51 10° SE daylight
06 Mar - 18:58:12 10° WSW 19:09:45 25° SSW 19:17:54 10° SSE visible
07 Mar - 11:12:46 10° SE 11:16:39 11° SE 11:20:31 10° ESE daylight
07 Mar - 13:14:18 10° SSW 13:28:53 27° SSE 13:41:56 10° ESE daylight
07 Mar - 15:25:44 10° SW 15:42:19 37° S 15:55:02 10° ESE daylight
07 Mar - 17:40:41 10° WSW 17:55:16 32° SSW 18:05:28 10° SE daylight
07 Mar - 19:58:43 10° WSW 20:06:17 16° SW 20:12:13 10° S visible
08 Mar - 12:01:30 10° S 12:13:34 21° SE 12:25:18 10° ESE daylight
08 Mar - 14:10:17 10° SW 14:26:38 34° SSE 14:40:28 10° ESE daylight
08 Mar - 16:23:46 10° WSW 16:40:10 37° S 16:52:13 10° SE daylight
08 Mar - 18:40:05 10° WSW 18:52:21 25° SSW 19:01:13 10° SSE visible
